Jefferson, GA

11:32 PM EDT on April 26, 2018 (GMT -0400)
Jefferson

Weather History for K19A - February, 2013

Change the Weather History Date:

Tuesday, February 26, 2013

  Actual Average (KWDR) Record (KWDR)
Temperature  
Mean Temperature 38 °F -  
Max Temperature 42 °F 59 °F 77 °F (1977)
Min Temperature 33 °F 33 °F -7 °F (2001)
Degree Days  
Heating Degree Days 28    
Moisture  
Dew Point 36 °F    
Average Humidity 92    
Maximum Humidity 100    
Minimum Humidity 61    
Precipitation  
Precipitation 0.00 in - - ()
Sea Level Pressure  
Sea Level Pressure 29.71 in    
Wind  
Wind Speed 7 mph (ENE)    
Max Wind Speed 12 mph    
Max Gust Speed 22 mph    
Visibility 6 miles    
Events Rain , Snow    
Averages and records for this station are not official NWS values.
T = Trace of Precipitation, MM = Missing Value Source: NWS Daily Summary

Daily Weather History Graph

Daily Weather History Graph

Search for Another Location

Airport or City:

Astronomy

Feb. 26, 2013 Rise Set
Actual Time 7:06 AM EST 6:28 PM EST
Civil Twilight 6:41 AM EST 6:53 PM EST
Nautical Twilight 6:12 AM EST 7:22 PM EST
Astronomical Twilight 5:43 AM EST 7:51 PM EST
Moon 7:37 PM EST (2/26) 7:12 AM EST (2/26)
Length of Visible Light 12h 12m
Length of Day
11h 21m
Full, 99% of the Moon is Illuminated
Feb 26
Full
Mar 4
Last Quarter
Mar 11
New
Mar 19
First Quarter
Mar 27
Full

Hourly Weather History & Observations

Time (EST) Temp. Windchill Dew Point Humidity Pressure Visibility Wind Dir Wind Speed Gust Speed Precip Events Conditions
12:15 AM 35.6 °F 29.2 °F 35.6 °F 100% 29.92 in 4.0 mi ENE 8.1 mph 17.3 mph N/A   Drizzle
12:35 AM 35.6 °F 28.6 °F 35.6 °F 100% 29.91 in 2.5 mi East 9.2 mph 20.7 mph N/A Rain Rain
12:55 AM 35.6 °F 30.7 °F 35.6 °F 100% 29.90 in 4.0 mi East 5.8 mph 17.3 mph N/A Rain Rain
1:15 AM 35.6 °F 29.9 °F 35.6 °F 100% 29.90 in 3.0 mi East 6.9 mph - N/A   Overcast
1:35 AM 35.6 °F 28.0 °F 33.8 °F 93% 29.89 in 4.0 mi East 10.4 mph 16.1 mph N/A Rain Light Rain
1:55 AM 35.6 °F 29.9 °F 33.8 °F 93% 29.88 in 4.0 mi East 6.9 mph - N/A Rain Rain
2:15 AM 35.6 °F 29.9 °F 33.8 °F 93% 29.87 in 3.0 mi East 6.9 mph - N/A   Overcast
2:35 AM 35.6 °F 28.0 °F 33.8 °F 93% 29.85 in 4.0 mi East 10.4 mph - N/A Rain Rain
2:55 AM 35.6 °F 28.0 °F 33.8 °F 93% 29.83 in 5.0 mi ENE 10.4 mph 19.6 mph N/A Rain Light Rain
3:15 AM 35.6 °F 28.6 °F 33.8 °F 93% 29.82 in 5.0 mi ENE 9.2 mph 19.6 mph N/A Rain Rain
3:35 AM 35.6 °F 30.7 °F 33.8 °F 93% 29.81 in 4.0 mi East 5.8 mph - N/A Rain Rain
3:55 AM 35.6 °F 29.2 °F 33.8 °F 93% 29.79 in 2.0 mi ENE 8.1 mph - N/A   Overcast
4:15 AM 33.8 °F 25.8 °F 33.8 °F 100% 29.76 in 2.5 mi East 10.4 mph 19.6 mph N/A Snow Light Snow
4:35 AM 33.8 °F 27.0 °F 33.8 °F 100% 29.78 in 2.0 mi ENE 8.1 mph 17.3 mph N/A Snow Light Snow
4:55 AM 33.8 °F 27.0 °F 33.8 °F 100% 29.76 in 2.5 mi East 8.1 mph 17.3 mph N/A   Overcast
5:15 AM 33.8 °F 25.8 °F 33.8 °F 100% 29.75 in 3.0 mi East 10.4 mph 16.1 mph N/A   Overcast
5:35 AM 35.6 °F 29.9 °F 33.8 °F 93% 29.76 in 3.0 mi East 6.9 mph - N/A Snow Light Snow
5:55 AM 35.6 °F 27.5 °F 33.8 °F 93% 29.75 in 4.0 mi East 11.5 mph 18.4 mph N/A Rain Rain
6:15 AM 35.6 °F 30.7 °F 33.8 °F 93% 29.74 in 2.5 mi East 5.8 mph 17.3 mph N/A Rain Light Rain
6:35 AM 35.6 °F 28.6 °F 33.8 °F 93% 29.74 in 4.0 mi East 9.2 mph 16.1 mph N/A Rain Rain
6:55 AM 35.6 °F 28.6 °F 33.8 °F 93% 29.72 in 7.0 mi East 9.2 mph 16.1 mph N/A Rain Light Rain
7:15 AM 35.6 °F 28.0 °F 33.8 °F 93% 29.71 in 4.0 mi East 10.4 mph 18.4 mph N/A Rain Rain
7:35 AM 35.6 °F 28.6 °F 33.8 °F 93% 29.69 in 4.0 mi East 9.2 mph 19.6 mph N/A Rain Rain
7:55 AM 35.6 °F 29.2 °F 33.8 °F 93% 29.71 in 5.0 mi East 8.1 mph - N/A Snow Light Snow
8:15 AM 35.6 °F 29.9 °F 33.8 °F 93% 29.69 in 5.0 mi ENE 6.9 mph 16.1 mph N/A Rain Rain
8:55 AM 35.6 °F 29.2 °F 33.8 °F 93% 29.68 in 10.0 mi ENE 8.1 mph 17.3 mph N/A   Overcast
9:35 AM 35.6 °F 27.5 °F 33.8 °F 93% 29.62 in 2.5 mi East 11.5 mph 20.7 mph N/A   Overcast
9:55 AM 35.6 °F 28.0 °F 33.8 °F 93% 29.60 in 3.0 mi ENE 10.4 mph 21.9 mph N/A   Overcast
10:15 AM 35.6 °F 30.7 °F 35.6 °F 100% 29.69 in 2.0 mi NNW 5.8 mph - N/A   Overcast
10:35 AM 35.6 °F - 35.6 °F 100% 29.69 in 1.0 mi Calm Calm - N/A Rain Rain
10:55 AM 35.6 °F - 35.6 °F 100% 29.67 in 3.0 mi Calm Calm - N/A Rain Light Rain
11:15 AM 37.4 °F 31.4 °F 35.6 °F 93% 29.65 in 5.0 mi ENE 8.1 mph - N/A   Light Drizzle
11:35 AM 37.4 °F 33.8 °F 35.6 °F 93% 29.64 in 7.0 mi ENE 4.6 mph - N/A   Overcast
11:55 AM 37.4 °F 32.1 °F 37.4 °F 100% 29.64 in 10.0 mi East 6.9 mph - N/A   Overcast
12:15 PM 37.4 °F 34.9 °F 37.4 °F 100% 29.64 in 10.0 mi NE 3.5 mph - N/A   Overcast
12:35 PM 37.4 °F 34.9 °F 37.4 °F 100% 29.64 in 5.0 mi ENE 3.5 mph - N/A   Overcast
12:55 PM 37.4 °F - 37.4 °F 100% 29.64 in 3.0 mi Calm Calm - N/A   Overcast
1:15 PM 37.4 °F 33.8 °F 37.4 °F 100% 29.63 in 2.5 mi ENE 4.6 mph - N/A   Overcast
1:35 PM 37.4 °F 33.8 °F 37.4 °F 100% 29.62 in 2.0 mi ENE 4.6 mph - N/A   Overcast
1:55 PM 39.2 °F 37.0 °F 37.4 °F 93% 29.63 in 2.5 mi NE 3.5 mph - N/A   Overcast
2:15 PM 39.2 °F 37.0 °F 37.4 °F 93% 29.63 in 4.0 mi East 3.5 mph - N/A   Overcast
2:35 PM 39.2 °F 37.0 °F 37.4 °F 93% 29.63 in 4.0 mi East 3.5 mph - N/A   Overcast
2:55 PM 41.0 °F - 39.2 °F 93% 29.63 in 3.0 mi Calm Calm - N/A   Overcast
3:15 PM 41.0 °F - 39.2 °F 93% 29.63 in 5.0 mi Calm Calm - N/A   Overcast
3:35 PM 41.0 °F - 39.2 °F 93% 29.61 in 10.0 mi Calm Calm - N/A   Overcast
3:55 PM 41.0 °F - 41.0 °F 100% 29.61 in 7.0 mi Calm Calm - N/A   Overcast
4:15 PM 42.8 °F - 41.0 °F 93% 29.61 in 10.0 mi Calm Calm - N/A   Overcast
4:35 PM 42.8 °F - 41.0 °F 93% 29.60 in 10.0 mi Calm Calm - N/A   Overcast
4:55 PM 42.8 °F - 41.0 °F 93% 29.60 in 10.0 mi Calm Calm - N/A   Overcast
5:15 PM 42.8 °F - 41.0 °F 93% 29.60 in 10.0 mi Calm Calm - N/A   Overcast
5:35 PM 42.8 °F 40.1 °F 41.0 °F 93% 29.62 in 10.0 mi WNW 4.6 mph - N/A   Overcast
5:55 PM 42.8 °F 40.1 °F 41.0 °F 93% 29.63 in 10.0 mi NW 4.6 mph - N/A   Overcast
6:15 PM 42.8 °F - 41.0 °F 93% 29.64 in 10.0 mi Calm Calm - N/A   Overcast
6:35 PM 42.8 °F - 41.0 °F 93% 29.65 in 10.0 mi Calm Calm - N/A   Overcast
6:55 PM 42.8 °F - 42.8 °F 100% 29.66 in 10.0 mi Calm Calm - N/A   Overcast
7:15 PM 42.8 °F - 41.0 °F 93% 29.66 in 5.0 mi Calm Calm - N/A   Scattered Clouds
7:35 PM 41.0 °F - 41.0 °F 100% 29.67 in 2.5 mi Calm Calm - N/A   Clear
7:55 PM 41.0 °F - 41.0 °F 100% 29.68 in 0.8 mi Calm Calm - N/A   Mist
8:15 PM 39.2 °F 35.9 °F 39.2 °F 100% 29.69 in 4.0 mi West 4.6 mph - N/A   Clear
8:35 PM 41.0 °F 35.8 °F 41.0 °F 100% 29.69 in 10.0 mi West 8.1 mph - N/A   Clear
8:55 PM 42.8 °F 37.0 °F 37.4 °F 81% 29.70 in 10.0 mi West 10.4 mph - N/A   Clear
9:15 PM 42.8 °F 37.5 °F 35.6 °F 76% 29.70 in 10.0 mi West 9.2 mph - N/A   Clear
9:35 PM 42.8 °F 37.5 °F 33.8 °F 70% 29.72 in 10.0 mi West 9.2 mph 16.1 mph N/A   Clear
9:55 PM 42.8 °F 38.6 °F 30.2 °F 61% 29.72 in 10.0 mi West 6.9 mph - N/A   Clear
10:15 PM 42.8 °F 38.0 °F 30.2 °F 61% 29.74 in 10.0 mi West 8.1 mph - N/A   Scattered Clouds
10:35 PM 42.8 °F 38.0 °F 32.0 °F 66% 29.74 in 10.0 mi WSW 8.1 mph - N/A   Mostly Cloudy
10:55 PM 42.8 °F 37.5 °F 30.2 °F 61% 29.74 in 10.0 mi West 9.2 mph - N/A   Mostly Cloudy
11:15 PM 42.8 °F 37.5 °F 30.2 °F 61% 29.75 in 10.0 mi West 9.2 mph - N/A   Overcast
11:35 PM 42.8 °F 37.0 °F 30.2 °F 61% 29.75 in 10.0 mi West 10.4 mph 16.1 mph N/A   Overcast